sat.trackr.live / text

‹ back to catalog

BEIDOU-3 M27 (C49)

NORAD 61187 · 2024-168C

PAYLOAD ACTIVE UNKNOWN

§ Identity

Operator
Country
PRC
Launch date
2024-09-19
Launch site
XICLF
Launch vehicle
Mass (kg)
RCS (m²)

Purposes: nav

External: N2YO · Heavens-Above · Gunter

§ Orbital elements

Epoch: 2026-09-19T19:32:51.416736Z

Period
773.24 min
Inclination
54.3816°
Eccentricity
0.0001110
Mean motion
1.86230487 rev/d
Perigee alt
21,525.0 km
Apogee alt
21,531.2 km
Semi-major
27,906.2 km
B*
0.0000e+0
RAAN
298.9283°
Arg perigee
322.1009°
Mean anomaly
73.6087°
Rev number
1,102

§ Raw data

BEIDOU-3 M27 (C49)1 61187U 24168C   26262.81448399 -.00000027  00000+0  00000+0 0  99962 61187  54.3816 298.9283 0001110 322.1009  73.6087  1.86230487 11027

JSON: /api/v1/satellites/61187 · /tle

For live sub-satellite position, see the globe view (requires WebGL).

§ Visibility from observer

Set your observer location to see the next 7 days of passes ≥ 10°. The values pass through the URL so the page stays shareable.

No JS? Fill the form by hand. The geolocation button needs JavaScript.